Miscellaneous Local Product
Issued by NWS Hastings, NE

Home | Current Version | Previous Version | Text Only | Print | Product List | Glossary On
Versions: 1 2 3 4 5 6 7 8 9 10 11 12 13 14 15 16 17 18 19 20 21 22 23 24 25 26 27 28 29 30 31 32 33 34 35 36 37 38 39 40 41 42 43 44 45 46 47 48 49 50
623
AXUS43 KGID 280402
MISGRI

GID CWA HOURLY WEATHER ROUNDUP
NATIONAL WEATHER SERVICE HASTINGS NE
1100 PM CDT WED JUL 27 2016

NOTE: "FAIR" INDICATES FEW OR NO CLOUDS BELOW 12,000 FEET WITH NO
SIGNIFICANT WEATHER AND/OR OBSTRUCTIONS TO VISIBILITY.

...SOUTH CENTRAL NEBRASKA...

CITY           SKY/WX    TMP DP  RH WIND       PRES   REMARKS
GRAND ISLAND   MOCLDY    72  67  84 N5        30.07R
HASTINGS       CLOUDY    72  67  84 NE3       30.08R
KEARNEY        CLEAR     73  16  11 N10       30.09R
ORD            MOCLDY    67  61  81 N6        30.10R
YORK           PTCLDY    72  68  88 N7        30.05R
AURORA         CLOUDY    71  69  92 N6        30.06R
LEXINGTON      CLEAR     70  64  81 N6        30.11R
HOLDREGE       CLEAR     71  68  92 N3        30.08S
HEBRON         CLOUDY    74  68  81 CALM      30.02S

...NEBRASKA PANHANDLE...

CITY           SKY/WX    TMP DP  RH WIND       PRES   REMARKS
CHADRON        CLOUDY    71  61  70 E9        30.15S
ALLIANCE       MOCLDY    71  61  70 E12       30.20R
SCOTTSBLUFF    CLOUDY    74  58  57 NE14      30.20R
SIDNEY         MOCLDY    67  61  81 E7        30.20R

...WESTERN AND NORTH CENTRAL NEBRASKA...

CITY           SKY/WX    TMP DP  RH WIND       PRES   REMARKS
VALENTINE      PTCLDY    61  57  87 MISG      30.13R
AINSWORTH      PTCLDY    62  59  93 SE3       30.13F
ONEILL         CLOUDY    68  59  72 NW10      30.09F
BROKEN BOW     CLEAR     65  62  90 N9        30.13R
IMPERIAL       CLOUDY    75  63  66 E10       30.12S
NORTH PLATTE   CLEAR     67  62  84 NE8       30.13R
MCCOOK         MOCLDY    75  68  78 E8        30.08R

...EASTERN NEBRASKA...

CITY           SKY/WX    TMP DP  RH WIND       PRES   REMARKS
NORFOLK        CLOUDY    69  61  75 NW8       30.04R
SO SIOUX CITY  CLOUDY    78  64  61 N8        30.00R
TEKAMAH        PTCLDY    76  67  73 NW13      29.99R
COLUMBUS       MOCLDY    70  59  68 NW6       30.04R
ALBION         MOCLDY    66  60  80 NW9G16    30.08R
OMAHA EPPLEY   PTCLDY    76  70  82 W3        29.98R
OFFUTT AFB     CLEAR     72  69  93 CALM      29.98R
MILLARD        PTCLDY    77  68  73 CALM      29.99R
LINCOLN        CLEAR     76  68  76 N5        30.01R
NEBRASKA CITY  CLEAR     74  72  92 CALM      29.99S
BEATRICE       CLEAR     72  69  90 N6        30.01R
FALLS CITY     CLEAR     75  71  87 NW5       29.97R

...NORTHERN KANSAS...

CITY           SKY/WX    TMP DP  RH WIND       PRES   REMARKS
GOODLAND       MOCLDY    74  65  73 SE10      30.12R
HILL CITY      CLEAR     77  67  71 NE10      30.06R
NORTON         CLEAR     73  63  68 NE8       30.07R
SMITH CENTER   CLEAR     73  66  78 E6        30.03F
BELOIT         MOCLDY    77  68  73 CALM      30.01S
HAYS           CLEAR     77  64  65 NE8       30.03S
RUSSELL        CLEAR     76  68  76 E7        30.02R
CONCORDIA      CLEAR     78  67  68 NE3       30.01R
SALINA         CLEAR     84  71  65 NE6       30.00R
TOPEKA           N/A     77  72  84 CALM      29.96R



USA.gov is the U.S. government's official web portal to all federal, state and local government web resources and services.